| time (UTC) | temp C | wind direction | speed KPH | gust KPH | rain 1hr cm | rain 24hr cm | rain mn cm | humidity % | barometer mb |
| 20260905222032 | 25 | 68 | 8.0 | 11.3 | 0.00 | 0.00 | 0.00 | 83 | 1012.1 |
| 20260905221503 | 25 | 68 | 8.0 | 11.3 | 0.00 | 0.00 | 0.00 | 83 | 1012.1 |
| 20260905221002 | 25 | 68 | 6.4 | 8.0 | 0.00 | 0.00 | 0.00 | 83 | 1011.8 |
| 20260905220503 | 26 | 68 | 3.2 | 3.2 | 0.00 | 0.00 | 0.00 | 82 | 1012.1 |
| 20260905220003 | 26 | 68 | 4.8 | 4.8 | 0.00 | 0.00 | 0.00 | 81 | 1012.1 |
| 20260905215502 | 26 | 45 | 6.4 | 8.0 | 0.00 | 0.00 | 0.00 | 81 | 1011.8 |
| 20260905215003 | 26 | 45 | 4.8 | 6.4 | 0.00 | 0.00 | 0.00 | 80 | 1011.8 |
| 20260905214502 | 26 | 23 | 6.4 | 8.0 | 0.00 | 0.00 | 0.00 | 79 | 1012.1 |
| 20260905214003 | 26 | 23 | 4.8 | 8.0 | 0.00 | 0.00 | 0.00 | 79 | 1012.1 |
| 20260905213502 | 26 | 23 | 6.4 | 9.7 | 0.00 | 0.00 | 0.00 | 78 | 1011.8 |
| 20260905213003 | 26 | 23 | 3.2 | 4.8 | 0.00 | 0.00 | 0.00 | 78 | 1011.8 |
| 20260905212502 | 26 | 68 | 4.8 | 6.4 | 0.00 | 0.00 | 0.00 | 80 | 1012.1 |
| 20260905212003 | 26 | 23 | 8.0 | 9.7 | 0.00 | 0.00 | 0.00 | 79 | 1011.8 |
| 20260905211503 | 26 | 0 | 6.4 | 8.0 | 0.00 | 0.00 | 0.00 | 79 | 1012.1 |
| 20260905211002 | 26 | 68 | 4.8 | 6.4 | 0.00 | 0.00 | 0.00 | 78 | 1012.1 |
| 20260905210533 | 26 | 23 | 6.4 | 8.0 | 0.00 | 0.00 | 0.00 | 79 | 1012.1 |
| 20260905210003 | 27 | 0 | 4.8 | 8.0 | 0.00 | 0.00 | 0.00 | 78 | 1012.1 |
| 20260905205503 | 27 | 45 | 4.8 | 4.8 | 0.00 | 0.00 | 0.00 | 76 | 1012.5 |
| 20260905205034 | 27 | 0 | 4.8 | 8.0 | 0.00 | 0.00 | 0.00 | 74 | 1012.5 |
| 20260905204503 | 27 | 315 | 1.6 | 3.2 | 0.00 | 0.00 | 0.00 | 75 | 1012.8 |
| 20260905204003 | 27 | 0 | 4.8 | 6.4 | 0.00 | 0.00 | 0.00 | 76 | 1012.5 |
| 20260905203503 | 27 | 0 | 6.4 | 8.0 | 0.00 | 0.00 | 0.00 | 75 | 1012.5 |
| 20260905203003 | 28 | 338 | 0.0 | 1.6 | 0.00 | 0.00 | 0.00 | 72 | 1012.5 |
| 20260905202533 | 27 | 23 | 3.2 | 4.8 | 0.00 | 0.00 | 0.00 | 75 | 1012.8 |
| 20260905202033 | 27 | 23 | 3.2 | 4.8 | 0.00 | 0.00 | 0.00 | 74 | 1012.5 |
| 20260905201533 | 27 | 293 | 1.6 | 3.2 | 0.00 | 0.00 | 0.00 | 77 | 1012.5 |
| 20260905201002 | 27 | 45 | 4.8 | 9.7 | 0.00 | 0.00 | 0.00 | 76 | 1012.5 |
| 20260905200503 | 27 | 23 | 4.8 | 4.8 | 0.00 | 0.00 | 0.00 | 74 | 1012.5 |
| 20260905200003 | 27 | 23 | 6.4 | 8.0 | 0.00 | 0.00 | 0.00 | 76 | 1012.5 |
| 20260905195503 | 27 | 0 | 6.4 | 8.0 | 0.00 | 0.00 | 0.00 | 75 | 1012.8 |
| 20260905195004 | 29 | 90 | 4.8 | 8.0 | 0.00 | 0.00 | 0.00 | 69 | 1012.8 |
| 20260905194532 | 28 | 0 | 1.6 | 3.2 | 0.00 | 0.00 | 0.00 | 73 | 1012.5 |
| 20260905194003 | 27 | 23 | 6.4 | 8.0 | 0.00 | 0.00 | 0.00 | 75 | 1012.8 |
| 20260905193502 | 26 | 45 | 3.2 | 3.2 | 0.00 | 0.00 | 0.00 | 78 | 1012.8 |
| 20260905193003 | 27 | 23 | 6.4 | 8.0 | 0.00 | 0.00 | 0.00 | 78 | 1012.5 |
| 20260905192503 | 27 | 23 | 6.4 | 9.7 | 0.00 | 0.00 | 0.00 | 76 | 1012.8 |
| 20260905192002 | 28 | 0 | 4.8 | 6.4 | 0.00 | 0.00 | 0.00 | 72 | 1012.8 |
| 20260905191503 | 27 | 293 | 0.0 | 1.6 | 0.00 | 0.00 | 0.00 | 74 | 1012.8 |
| 20260905191002 | 27 | 23 | 6.4 | 8.0 | 0.00 | 0.00 | 0.00 | 73 | 1012.8 |
| 20260905190503 | 27 | 338 | 8.0 | 9.7 | 0.00 | 0.00 | 0.00 | 76 | 1013.2 |
| 20260905190033 | 26 | 23 | 3.2 | 3.2 | 0.00 | 0.00 | 0.00 | 78 | 1012.8 |
| 20260905185502 | 26 | 23 | 8.0 | 9.7 | 0.00 | 0.00 | 0.00 | 80 | 1012.8 |
| 20260905185003 | 26 | 23 | 4.8 | 8.0 | 0.00 | 0.00 | 0.00 | 80 | 1013.2 |
| 20260905184503 | 26 | 23 | 3.2 | 3.2 | 0.00 | 0.00 | 0.00 | 78 | 1012.8 |
| 20260905184002 | 26 | 293 | 0.0 | 1.6 | 0.00 | 0.00 | 0.00 | 79 | 1012.8 |
| 20260905183503 | 26 | 158 | 3.2 | 3.2 | 0.00 | 0.00 | 0.00 | 82 | 1013.2 |
| 20260905183003 | 26 | 23 | 4.8 | 6.4 | 0.00 | 0.00 | 0.00 | 81 | 1013.2 |
| 20260905182533 | 27 | 315 | 0.0 | 1.6 | 0.00 | 0.00 | 0.00 | 81 | 1013.5 |
| 20260905182003 | 26 | 0 | 1.6 | 3.2 | 0.00 | 0.00 | 0.00 | 85 | 1013.2 |
| 20260905181533 | 25 | 315 | 1.6 | 3.2 | 0.00 | 0.00 | 0.00 | 87 | 1013.5 |
| 20260905181002 | 24 | 23 | 4.8 | 6.4 | 0.00 | 0.00 | 0.00 | 89 | 1013.5 |
| 20260905180503 | 24 | 23 | 4.8 | 6.4 | 0.00 | 0.00 | 0.00 | 89 | 1013.2 |
| 20260905180033 | 25 | 135 | 0.0 | 0.0 | 0.00 | 0.00 | 0.00 | 88 | 1013.5 |